SCP
0 0 0 0 0 0 0 0 0 1 1 0 0 0 0 0 0 0 0 0 0 0 0 0 0 0 0 0 0 0 0 0 0 0 0 0 0 0 0 0 0 0 0
0 0 0 0 0 0 0 0 0 1 1 1 0 0 0 0 0 0 0 0 0 0 0 0 0 0 0 0 0 0 0 0 0 0 0 0 0 0 0 0 0 0 0
0 0 0 0 0 0 0 0 1 1 1 1 1 0 0 0 0 0 0 0 0 0 0 0 0 0 0 0 0 0 0 0 0 0 0 0 0 0 0 0 0 0 0
0 0 0 0 0 0 0 1 1 1 1 1 1 1 1 0 0 0 0 0 0 0 0 0 0 0 0 0 0 0 0 0 0 0 0 0 0 0 0 0 0 0 0
0 0 0 0 0 0 1 1 1 1 1 1 1 1 1 1 1 1 0 0 0 0 0 0 0 0 0 0 0 0 0 0 0 0 0 0 0 0 0 0 0 0 0
1 1 0 0 0 0 1 1 1 1 1 1 1 1 1 1 1 1 0 0 0 0 0 0 0 0 0 0 0 0 0 0 0 0 0 0 0 0 0 0 0 0 0
1 1 0 0 0 1 1 1 1 1 1 1 1 1 1 1 1 1 1 0 0 0 0 0 0 0 0 0 0 0 0 0 0 0 0 0 0 0 0 0 0 0 0
1 1 1 1 1 1 1 1 1 1 1 1 1 1 1 1 1 1 1 0 0 0 0 0 0 0 0 0 0 0 0 0 0 0 0 0 0 0 0 0 0 0 0
1 1 1 1 1 1 1 1 1 1 1 1 1 1 1 1 1 1 1 0 0 0 0 0 0 0 0 0 0 0 0 0 0 0 0 0 0 0 0 0 0 0 0
0 1 1 1 1 1 1 1 1 1 1 1 1 1 1 1 1 1 0 0 0 0 0 0 0 0 0 0 0 0 0 0 0 0 0 0 0 0 0 0 0 0 0
0 0 1 1 1 1 1 1 1 1 1 1 1 1 1 1 1 0 0 0 0 0 0 0 0 0 0 0 0 0 0 0 0 0 0 0 0 0 0 0 0 0 0
0 0 1 1 1 1 1 1 1 1 1 1 1 1 1 1 1 0 0 0 0 0 0 0 0 0 0 0 0 0 0 0 0 0 0 0 0 0 0 0 0 0 0
0 0 1 1 1 1 1 1 1 1 1 1 1 1 1 1 1 0 0 0 0 0 0 0 0 0 0 0 0 0 0 0 0 0 0 1 1 0 0 0 0 0 0
1 1 1 1 1 1 1 1 1 1 1 1 1 1 1 1 1 0 0 0 0 0 0 0 0 0 0 0 0 0 0 0 0 0 0 1 1 1 0 0 0 0 0
1 1 1 1 1 1 1 1 1 1 1 1 1 1 1 1 1 0 0 0 0 0 0 0 0 0 0 0 0 0 0 0 0 0 0 0 0 0 0 0 0 0 0
1 1 1 1 1 1 1 1 1 1 1 1 1 1 1 1 0 0 0 0 0 0 0 0 0 0 0 0 0 0 0 0 0 0 0 0 0 0 0 0 0 0 0
0 1 1 1 1 1 1 1 1 1 1 1 1 1 0 0 0 0 0 0 0 0 0 0 0 0 0 0 0 0 0 0 0 0 0 0 0 0 0 0 0 0 0
0 1 1 1 1 1 1 1 1 1 1 1 1 0 0 0 0 0 0 0 0 0 0 0 0 0 0 0 0 0 0 0 0 0 0 0 0 0 0 0 0 0 0
1 1 1 1 1 1 1 1 1 1 0 0 0 0 0 0 0 1 1 1 0 0 0 0 0 0 0 0 0 0 0 0 0 0 0 0 0 0 0 0 0 0 0
1 1 1 1 1 1 1 1 1 1 0 0 0 0 0 0 0 0 1 1 0 0 0 0 0 0 0 0 0 0 0 0 0 0 0 0 0 0 0 0 0 1 1
1 1 1 1 1 1 1 1 1 1 0 0 0 0 0 0 0 0 0 1 0 0 0 0 0 0 0 0 0 0 0 0 0 0 0 0 0 0 0 0 0 0 0
1 1 1 1 1 1 1 1 1 1 1 0 0 0 0 0 0 0 0 0 0 0 0 0 0 0 0 0 0 0 0 0 0 0 0 0 0 0 0 0 0 0 0
1 1 1 1 1 1 1 1 1 1 1 1 0 0 0 0 0 0 0 0 0 0 0 0 0 0 0 0 0 0 0 0 0 0 0 0 0 0 0 0 0 0 0
0 1 1 1 1 1 1 1 1 1 1 0 0 0 0 0 0 0 0 0 0 0 0 0 0 0 0 0 0 0 0 0 0 0 0 0 0 0 0 0 0 0 0
0 0 1 1 1 1 1 1 0 0 0 0 0 0 0 0 0 0 0 0 0 0 0 0 0 0 0 0 0 0 0 0 0 0 0 0 0 0 0 0 0 0 0
0 0 0 1 1 1 1 0 0 0 0 0 0 0 0 0 0 0 0 0 0 0 0 0 0 0 0 0 0 0 0 0 0 0 0 0 0 0 0 0 0 0 0
Wind_Speed
9 9 10 10 10 10 10 10 9 8 7 5 5 5 4 3 3 2 2 2 1 1 2 1 2 2 1 1 1 1 2 1 1 1 1 2 2 2 2 2 2 3 3
9 10 10 10 10 11 11 10 10 9 8 6 4 3 3 3 3 2 3 3 3 2 2 1 2 1 1 2 2 2 2 1 1 2 1 1 2 2 2 2 2 2 3
9 10 10 11 11 11 12 10 10 10 9 8 6 5 4 3 4 4 4 3 3 2 1 2 2 1 2 1 2 2 3 2 1 1 2 2 0 0 2 1 1 1 2
8 9 10 11 11 11 11 11 11 10 9 9 7 7 6 5 4 3 3 3 3 2 2 2 1 2 1 1 3 1 3 3 2 1 1 2 2 2 1 2 1 1 2
7 8 9 10 10 10 10 10 10 10 9 9 8 7 6 4 4 3 3 3 3 3 2 2 2 2 2 1 2 2 4 3 3 2 2 2 2 4 2 1 1 1 1
5 6 6 8 9 9 9 10 10 10 10 9 9 8 6 5 4 4 4 4 3 3 3 3 2 2 1 2 2 3 4 3 3 3 2 2 2 2 2 2 2 1 0
4 5 6 8 9 10 10 9 10 9 9 9 8 8 7 7 6 5 4 3 3 2 2 2 2 2 2 2 2 3 3 3 3 3 3 2 2 2 2 3 2 1 1
4 5 5 6 8 9 9 9 10 9 9 9 7 7 7 5 5 5 3 3 2 2 2 2 2 2 2 2 2 3 3 2 3 3 3 3 2 2 2 2 3 2 2
4 4 4 5 6 7 8 9 9 9 9 9 8 7 6 5 4 5 4 3 2 2 3 3 2 2 2 2 2 2 2 2 3 3 3 3 2 3 2 2 2 3 3
3 4 4 5 5 6 6 7 8 8 8 8 8 6 6 6 5 5 4 3 3 2 3 3 2 2 2 2 3 3 2 2 2 2 2 2 2 1 2 2 3 3 3
3 3 3 4 5 6 6 6 7 7 7 7 6 6 6 6 5 4 5 4 4 4 3 3 3 2 2 2 2 2 2 2 2 2 2 2 2 2 2 2 2 3 3
3 4 4 4 5 6 6 6 6 6 7 7 6 6 5 5 5 5 4 4 5 4 4 4 3 3 3 3 3 3 2 2 2 2 2 2 1 2 2 2 2 2 3
3 4 4 4 4 4 5 6 7 6 6 6 7 6 5 5 5 5 4 4 4 4 4 4 4 3 3 3 3 2 2 2 2 2 2 2 2 3 2 3 3 2 2
3 3 4 4 4 4 5 5 6 6 6 6 6 5 5 5 4 4 4 5 4 4 4 4 3 3 3 3 3 2 2 2 2 2 2 2 2 2 3 3 3 3 3
3 4 4 4 4 4 4 5 5 5 5 5 5 4 4 4 4 3 4 4 4 4 4 4 4 4 3 2 2 3 3 2 2 2 2 1 0 1 2 3 2 3 3
2 3 4 4 4 4 3 5 5 5 5 5 4 4 3 4 4 4 4 4 4 4 4 5 4 4 2 2 0 3 2 2 2 2 2 3 3 2 2 2 2 3 4
2 3 4 4 4 4 3 4 5 5 4 4 4 4 3 3 3 4 4 4 4 4 4 4 4 3 2 2 2 3 3 3 2 2 2 2 1 1 1 2 4 4 4
2 2 3 4 4 4 4 3 4 4 4 4 4 4 4 3 3 4 4 3 3 4 4 4 5 4 3 4 4 4 4 3 3 2 2 2 1 1 2 3 2 3 2
2 2 3 4 4 4 4 4 4 4 3 3 3 3 3 3 4 3 3 3 3 4 5 5 5 4 4 5 5 5 4 3 3 2 2 3 2 1 2 4 3 2 2
2 3 4 5 5 4 4 4 4 3 3 2 2 2 3 3 3 3 3 3 3 4 4 4 4 4 4 5 6 6 5 3 3 3 3 3 2 2 2 4 2 2 2
3 4 4 4 5 4 4 4 3 2 2 1 2 2 2 2 2 2 2 3 3 3 3 4 4 4 4 5 6 6 5 4 4 3 3 3 4 3 4 5 3 3 4
4 4 4 4 4 4 4 4 3 2 1 2 2 2 2 2 1 2 2 2 2 3 3 4 4 3 4 3 5 6 6 5 3 3 2 2 5 4 4 3 2 3 5
3 3 4 4 4 4 3 3 2 2 2 2 2 2 2 1 1 2 2 2 3 3 3 3 3 2 2 4 5 6 6 5 4 2 1 1 4 5 5 5 4 4 4
3 3 3 4 3 3 3 3 2 2 2 2 2 2 2 2 2 1 1 1 2 2 2 2 2 1 2 2 3 4 5 6 5 3 4 6 6 5 3 3 4 3 3
2 2 3 3 3 3 3 2 2 2 3 3 2 2 3 2 2 1 1 1 1 2 2 2 2 2 2 2 3 2 2 2 2 3 4 3 3 3 3 3 3 3 3
2 2 3 3 3 2 2 2 2 3 3 3 3 2 2 2 2 2 1 4 2 3 2 3 3 2 2 1 1 1 1 1 2 4 4 3 3 3 2 2 3 3 3
Wind_Direction
196 186 185 185 181 181 182 186 188 179 183 183 186 184 179 179 172 167 142 152 145 169 241 228 184 230 210 238 217 222 208 226 234 245 221 202 203 209 221 231 231 214 216
188 183 184 186 186 183 184 185 187 184 189 184 190 192 181 183 173 167 151 171 177 207 209 227 230 206 200 204 223 242 255 232 234 279 260 220 179 200 204 213 214 226 219
190 188 189 190 188 186 187 188 186 185 192 184 184 177 173 185 181 181 178 179 189 195 226 210 242 234 234 193 227 234 248 254 235 286 300 294 325 201 155 214 216 226 235
195 192 191 191 192 190 188 189 185 186 185 185 192 191 194 191 184 188 165 175 187 193 192 206 206 241 244 203 235 210 251 253 247 202 245 301 325 292 209 172 175 225 237
197 193 195 191 190 189 187 184 183 183 183 188 190 200 202 193 182 182 167 196 173 187 192 201 205 214 222 223 247 231 255 251 260 248 223 226 227 251 270 271 252 224 199
187 187 188 187 187 184 182 179 177 180 181 186 191 200 200 198 192 192 184 196 180 181 181 200 207 218 220 215 228 231 230 252 265 263 249 242 241 239 248 249 247 248 176
179 177 179 180 180 181 180 179 177 177 180 185 190 193 197 196 198 202 191 205 191 182 175 202 206 212 211 226 233 230 245 237 239 245 250 256 260 266 262 265 266 260 214
183 180 178 177 175 175 178 179 178 177 178 180 185 188 189 197 193 196 199 197 199 175 162 201 205 209 215 224 230 243 234 234 241 244 252 254 246 258 257 266 273 261 231
180 175 172 170 170 173 177 178 174 175 177 178 180 182 184 191 182 180 198 196 192 182 181 197 205 211 216 230 238 245 248 239 240 236 226 247 245 241 250 254 267 273 272
170 166 165 164 169 170 169 173 171 175 175 175 181 174 177 180 180 193 188 188 194 189 192 193 199 210 215 220 237 230 220 236 238 251 255 257 264 265 252 259 257 263 273
169 164 160 159 161 162 160 161 164 167 169 170 170 170 172 173 178 186 186 186 193 189 193 196 199 206 212 213 228 249 229 237 238 243 233 237 279 275 267 255 264 267 269
165 157 151 146 154 161 160 159 164 168 169 164 165 169 173 176 181 182 185 187 190 194 189 199 204 214 213 213 225 237 238 238 238 239 240 243 236 246 267 267 257 267 272
164 150 143 150 154 161 165 165 169 169 168 164 168 166 176 183 186 184 187 190 193 197 196 199 203 212 216 216 224 231 239 241 244 243 236 237 246 252 255 264 268 264 251
171 160 147 151 154 160 169 171 172 166 167 165 166 168 178 182 185 188 189 193 195 198 202 204 208 208 211 214 217 216 224 231 235 246 245 246 247 259 265 251 252 261 261
179 164 160 153 158 161 168 169 167 161 161 164 165 171 177 179 183 188 192 196 200 204 206 208 210 212 209 216 221 216 218 225 230 233 238 222 228 334 306 303 295 269 261
189 172 171 168 165 161 166 166 156 154 161 164 160 162 172 181 185 192 197 197 202 209 213 217 216 213 206 95 11 275 238 240 235 235 231 199 196 181 199 282 299 301 281
190 181 175 173 164 160 161 163 156 155 157 159 166 169 170 185 198 202 198 201 199 208 219 221 219 213 180 154 195 254 252 240 237 225 239 264 117 233 252 212 223 241 256
168 161 153 147 149 146 149 149 151 156 155 157 165 170 173 188 203 210 204 202 204 208 215 217 215 213 195 178 198 229 232 238 237 222 217 254 240 281 294 270 261 259 242
141 149 150 144 143 142 146 149 156 160 158 163 167 172 180 194 202 211 212 208 211 216 219 216 215 215 199 181 198 221 220 219 224 222 214 240 221 144 275 255 252 254 232
133 141 141 136 136 140 148 146 148 151 157 169 179 184 193 205 209 207 217 216 215 222 225 217 217 217 215 186 195 219 230 213 210 203 198 188 215 171 246 255 250 248 259
140 142 144 142 141 142 143 146 147 156 162 151 171 181 193 203 205 209 227 224 220 222 226 218 217 221 223 189 190 213 239 229 220 216 212 176 160 179 220 254 257 260 265
149 148 146 141 143 148 150 145 133 138 156 158 165 167 185 208 182 201 227 222 216 213 219 221 222 218 208 199 184 201 231 277 251 242 232 144 152 191 216 234 262 256 257
149 160 157 149 149 153 153 143 135 144 159 172 175 179 192 210 197 206 218 222 215 224 218 220 226 220 201 167 169 187 212 234 250 256 58 141 178 210 211 217 232 232 236
153 159 159 151 143 144 144 137 138 155 169 179 186 193 199 196 190 220 223 243 240 233 235 236 255 257 225 191 174 184 191 198 208 209 178 184 195 214 230 208 211 231 252
140 155 158 149 139 139 143 147 153 165 175 186 194 201 202 186 190 204 6 309 21 3 308 292 274 276 269 17 357 303 222 220 201 213 207 201 194 201 203 211 221 232 229
152 160 161 152 146 149 154 162 170 184 193 195 194 200 204 193 195 180 132 58 53 68 54 13 345 1 34 53 81 56 360 237 223 230 214 213 218 225 226 228 228 229 239